Year,Month,Day,Hour,Minute,Value (Times are PST for temperature in C)
2015,05,15,00,00,12.40
2015,05,15,00,01,12.30
2015,05,15,00,02,12.30
2015,05,15,00,03,12.30
2015,05,15,00,04,12.30
2015,05,15,00,05,12.30
2015,05,15,00,06,12.30
2015,05,15,00,07,12.30
2015,05,15,00,08,12.30
2015,05,15,00,09,12.30
2015,05,15,00,10,12.30
2015,05,15,00,11,12.30
2015,05,15,00,12,12.30
2015,05,15,00,13,12.30
2015,05,15,00,14,12.20
2015,05,15,00,15,12.20
2015,05,15,00,16,12.10
2015,05,15,00,17,12.10
2015,05,15,00,18,12.10
2015,05,15,00,19,12.10
2015,05,15,00,20,12.10
2015,05,15,00,21,12.00
2015,05,15,00,22,12.00
2015,05,15,00,23,12.00
2015,05,15,00,24,12.00
2015,05,15,00,25,12.00
2015,05,15,00,26,12.00
2015,05,15,00,27,12.00
2015,05,15,00,28,12.00
2015,05,15,00,29,12.00
2015,05,15,00,30,12.00
2015,05,15,00,31,12.00
2015,05,15,00,32,12.00
2015,05,15,00,33,12.10
2015,05,15,00,34,12.10
2015,05,15,00,35,12.10
2015,05,15,00,36,12.10
2015,05,15,00,37,12.10
2015,05,15,00,38,12.10
2015,05,15,00,39,12.20
2015,05,15,00,40,12.20
2015,05,15,00,41,12.20
2015,05,15,00,42,12.20
2015,05,15,00,43,12.20
2015,05,15,00,44,12.20
2015,05,15,00,45,12.20
2015,05,15,00,46,12.20
2015,05,15,00,47,12.20
2015,05,15,00,48,12.20
2015,05,15,00,49,12.20
2015,05,15,00,50,12.20
2015,05,15,00,51,12.20
2015,05,15,00,52,12.20
2015,05,15,00,53,12.20
2015,05,15,00,54,12.20
2015,05,15,00,55,12.10
2015,05,15,00,56,12.10
2015,05,15,00,57,12.10
2015,05,15,00,58,12.10
2015,05,15,00,59,12.10
2015,05,15,01,00,12.10
2015,05,15,01,01,12.10
2015,05,15,01,02,12.10
2015,05,15,01,03,12.10
2015,05,15,01,04,12.00
2015,05,15,01,05,12.00
2015,05,15,01,06,12.00
2015,05,15,01,07,12.00
2015,05,15,01,08,12.00
2015,05,15,01,09,12.00
2015,05,15,01,10,12.00
2015,05,15,01,11,12.00
2015,05,15,01,12,11.90
2015,05,15,01,13,11.90
2015,05,15,01,14,11.90
2015,05,15,01,15,11.80
2015,05,15,01,16,11.80
2015,05,15,01,17,11.80
2015,05,15,01,18,11.80
2015,05,15,01,19,11.80
2015,05,15,01,20,11.70
2015,05,15,01,21,11.70
2015,05,15,01,22,11.70
2015,05,15,01,23,11.70
2015,05,15,01,24,11.70
2015,05,15,01,25,11.70
2015,05,15,01,26,11.70
2015,05,15,01,27,11.60
2015,05,15,01,28,11.60
2015,05,15,01,29,11.60
2015,05,15,01,30,11.60
2015,05,15,01,31,11.50
2015,05,15,01,32,11.50
2015,05,15,01,33,11.40
2015,05,15,01,34,11.40
2015,05,15,01,35,11.40
2015,05,15,01,36,11.30
2015,05,15,01,37,11.30
2015,05,15,01,38,11.30
2015,05,15,01,39,11.30
2015,05,15,01,40,11.30
2015,05,15,01,41,11.30
2015,05,15,01,42,11.30
2015,05,15,01,43,11.30
2015,05,15,01,44,11.20
2015,05,15,01,45,11.20
2015,05,15,01,46,11.20
2015,05,15,01,47,11.20
2015,05,15,01,48,11.20
2015,05,15,01,49,11.20
2015,05,15,01,50,11.20
2015,05,15,01,51,11.20
2015,05,15,01,52,11.20
2015,05,15,01,53,11.20
2015,05,15,01,54,11.20
2015,05,15,01,55,11.20
2015,05,15,01,56,11.20
2015,05,15,01,57,11.20
2015,05,15,01,58,11.10
2015,05,15,01,59,11.10
2015,05,15,02,00,11.10
2015,05,15,02,01,11.10
2015,05,15,02,02,11.10
2015,05,15,02,03,11.00
2015,05,15,02,04,11.00
2015,05,15,02,05,11.00
2015,05,15,02,06,10.90
2015,05,15,02,07,10.90
2015,05,15,02,08,10.90
2015,05,15,02,09,10.90
2015,05,15,02,10,10.90
2015,05,15,02,11,10.90
2015,05,15,02,12,10.90
2015,05,15,02,13,10.90
2015,05,15,02,14,10.90
2015,05,15,02,15,10.80
2015,05,15,02,16,10.80
2015,05,15,02,17,10.80
2015,05,15,02,18,10.80
2015,05,15,02,19,10.70
2015,05,15,02,20,10.70
2015,05,15,02,21,10.70
2015,05,15,02,22,10.70
2015,05,15,02,23,10.70
2015,05,15,02,24,10.70
2015,05,15,02,25,10.70
2015,05,15,02,26,10.70
2015,05,15,02,27,10.70
2015,05,15,02,28,10.60
2015,05,15,02,29,10.60
2015,05,15,02,30,10.60
2015,05,15,02,31,10.60
2015,05,15,02,32,10.60
2015,05,15,02,33,10.60
2015,05,15,02,34,10.50
2015,05,15,02,35,10.50
2015,05,15,02,36,10.50
2015,05,15,02,37,10.50
2015,05,15,02,38,10.50
2015,05,15,02,39,10.50
2015,05,15,02,40,10.50
2015,05,15,02,41,10.50
2015,05,15,02,42,10.60
2015,05,15,02,43,10.60
2015,05,15,02,44,10.60
2015,05,15,02,45,10.60
2015,05,15,02,46,10.60
2015,05,15,02,47,10.60
2015,05,15,02,48,10.60
2015,05,15,02,49,10.60
2015,05,15,02,50,10.60
2015,05,15,02,51,10.60
2015,05,15,02,52,10.60
2015,05,15,02,53,10.60
2015,05,15,02,54,10.60
2015,05,15,02,55,10.60
2015,05,15,02,56,10.60
2015,05,15,02,57,10.50
2015,05,15,02,58,10.50
2015,05,15,02,59,10.50
2015,05,15,03,00,10.50
2015,05,15,03,01,10.50
2015,05,15,03,02,10.50
2015,05,15,03,03,10.50
2015,05,15,03,04,10.50
2015,05,15,03,05,10.50
2015,05,15,03,06,10.40
2015,05,15,03,07,10.40
2015,05,15,03,08,10.40
2015,05,15,03,09,10.40
2015,05,15,03,10,10.40
2015,05,15,03,11,10.40
2015,05,15,03,12,10.40
2015,05,15,03,13,10.40
2015,05,15,03,14,10.30
2015,05,15,03,15,10.30
2015,05,15,03,16,10.30
2015,05,15,03,17,10.30
2015,05,15,03,18,10.30
2015,05,15,03,19,10.30
2015,05,15,03,20,10.30
2015,05,15,03,21,10.30
2015,05,15,03,22,10.30
2015,05,15,03,23,10.30
2015,05,15,03,24,10.20
2015,05,15,03,25,10.20
2015,05,15,03,26,10.20
2015,05,15,03,27,10.20
2015,05,15,03,28,10.20
2015,05,15,03,29,10.20
2015,05,15,03,30,10.20
2015,05,15,03,31,10.20
2015,05,15,03,32,10.20
2015,05,15,03,33,10.10
2015,05,15,03,34,10.10
2015,05,15,03,35,10.10
2015,05,15,03,36,10.10
2015,05,15,03,37,10.10
2015,05,15,03,38,10.10
2015,05,15,03,39,10.10
2015,05,15,03,40,10.10
2015,05,15,03,41,10.10
2015,05,15,03,42,10.10
2015,05,15,03,43,10.10
2015,05,15,03,44,10.10
2015,05,15,03,45,10.10
2015,05,15,03,46,10.10
2015,05,15,03,47,10.10
2015,05,15,03,48,10.10
2015,05,15,03,49,10.10
2015,05,15,03,50,10.10
2015,05,15,03,51,10.10
2015,05,15,03,52,10.10
2015,05,15,03,53,10.00
2015,05,15,03,54,10.00
2015,05,15,03,55,10.00
2015,05,15,03,56,10.00
2015,05,15,03,57,10.00
2015,05,15,03,58,10.00
2015,05,15,03,59,10.00
2015,05,15,04,00,10.00
2015,05,15,04,01,10.00
2015,05,15,04,02,10.00
2015,05,15,05,02,9.60
2015,05,15,05,03,9.60
2015,05,15,05,04,9.60
2015,05,15,05,05,9.60
2015,05,15,05,06,9.60
2015,05,15,05,07,9.60
2015,05,15,05,08,9.60
2015,05,15,05,09,9.60
2015,05,15,05,10,9.60
2015,05,15,05,11,9.60
2015,05,15,05,12,9.50
2015,05,15,05,13,9.50
2015,05,15,05,14,9.50
2015,05,15,05,15,9.50
2015,05,15,05,16,9.50
2015,05,15,05,17,9.40
2015,05,15,05,18,9.40
2015,05,15,05,19,9.40
2015,05,15,05,20,9.40
2015,05,15,05,21,9.40
2015,05,15,05,22,9.40
2015,05,15,05,23,9.40
2015,05,15,05,24,9.40
2015,05,15,05,25,9.40
2015,05,15,05,26,9.40
2015,05,15,05,27,9.40
2015,05,15,05,28,9.40
2015,05,15,05,29,9.40
2015,05,15,05,30,9.30
2015,05,15,05,31,9.30
2015,05,15,05,32,9.30
2015,05,15,05,33,9.30
2015,05,15,05,34,9.30
2015,05,15,05,35,9.30
2015,05,15,05,36,9.30
2015,05,15,05,37,9.30
2015,05,15,05,38,9.30
2015,05,15,05,39,9.40
2015,05,15,05,40,9.40
2015,05,15,05,41,9.40
2015,05,15,05,42,9.40
2015,05,15,05,43,9.40
2015,05,15,05,44,9.40
2015,05,15,05,45,9.40
2015,05,15,05,46,9.40
2015,05,15,05,47,9.50
2015,05,15,05,48,9.50
2015,05,15,05,49,9.50
2015,05,15,05,50,9.50
2015,05,15,05,51,9.50
2015,05,15,05,52,9.50
2015,05,15,05,53,9.60
2015,05,15,05,54,9.60
2015,05,15,05,55,9.50
2015,05,15,05,56,9.50
2015,05,15,05,57,9.50
2015,05,15,05,58,9.50
2015,05,15,05,59,9.50
2015,05,15,06,00,9.50
2015,05,15,06,01,9.50
2015,05,15,06,02,9.50
2015,05,15,06,03,9.50
2015,05,15,06,04,9.50
2015,05,15,06,05,9.60
2015,05,15,06,06,9.60
2015,05,15,06,07,9.60
2015,05,15,06,08,9.60
2015,05,15,06,09,9.60
2015,05,15,06,10,9.60
2015,05,15,06,11,9.60
2015,05,15,06,12,9.60
2015,05,15,06,13,9.60
2015,05,15,06,14,9.60
2015,05,15,06,15,9.60
2015,05,15,06,16,9.60
2015,05,15,06,17,9.60
2015,05,15,06,18,9.60
2015,05,15,06,19,9.60
2015,05,15,06,20,9.60
2015,05,15,06,21,9.60
2015,05,15,06,22,9.60
2015,05,15,06,23,9.60
2015,05,15,06,24,9.50
2015,05,15,06,25,9.50
2015,05,15,06,26,9.50
2015,05,15,06,27,9.50
2015,05,15,06,28,9.50
2015,05,15,06,29,9.50
2015,05,15,06,30,9.50
2015,05,15,06,31,9.60
2015,05,15,06,32,9.50
2015,05,15,06,33,9.50
2015,05,15,06,34,9.50
2015,05,15,06,35,9.50
2015,05,15,06,36,9.50
2015,05,15,06,37,9.60
2015,05,15,06,38,9.60
2015,05,15,06,39,9.60
2015,05,15,06,40,9.60
2015,05,15,06,41,9.60
2015,05,15,06,42,9.60
2015,05,15,06,43,9.60
2015,05,15,06,44,9.60
2015,05,15,06,45,9.60
2015,05,15,06,46,9.60
2015,05,15,06,47,9.60
2015,05,15,06,48,9.70
2015,05,15,06,49,9.70
2015,05,15,06,50,9.70
2015,05,15,06,51,9.70
2015,05,15,06,52,9.70
2015,05,15,06,53,9.70
2015,05,15,06,54,9.70
2015,05,15,06,55,9.80
2015,05,15,06,56,9.80
2015,05,15,06,57,9.80
2015,05,15,06,58,9.80
2015,05,15,06,59,9.80
2015,05,15,07,00,9.80
2015,05,15,07,01,9.80
2015,05,15,07,02,9.90
2015,05,15,07,03,9.90
2015,05,15,07,04,9.90
2015,05,15,07,05,9.90
2015,05,15,07,06,10.00
2015,05,15,07,07,10.00
2015,05,15,07,08,10.10
2015,05,15,07,09,10.10
2015,05,15,07,10,10.10
2015,05,15,07,11,10.10
2015,05,15,07,12,10.10
2015,05,15,07,13,10.20
2015,05,15,07,14,10.20
2015,05,15,07,15,10.20
2015,05,15,07,16,10.20
2015,05,15,07,17,10.20
2015,05,15,07,18,10.20
2015,05,15,07,19,10.30
2015,05,15,07,20,10.30
2015,05,15,07,21,10.30
2015,05,15,07,22,10.30
2015,05,15,07,23,10.40
2015,05,15,07,24,10.40
2015,05,15,07,25,10.40
2015,05,15,07,26,10.50
2015,05,15,07,27,10.50
2015,05,15,07,28,10.60
2015,05,15,07,29,10.60
2015,05,15,07,30,10.60
2015,05,15,07,31,10.70
2015,05,15,07,32,10.70
2015,05,15,07,33,10.70
2015,05,15,07,34,10.80
2015,05,15,07,35,10.80
2015,05,15,07,36,10.80
2015,05,15,07,37,10.90
2015,05,15,07,38,10.90
2015,05,15,07,39,10.90
2015,05,15,07,40,11.00
2015,05,15,07,41,11.00
2015,05,15,07,42,11.00
2015,05,15,07,43,11.10
2015,05,15,07,44,11.10
2015,05,15,07,45,11.10
2015,05,15,07,46,11.10
2015,05,15,07,47,11.20
2015,05,15,07,48,11.20
2015,05,15,07,49,11.20
2015,05,15,07,50,11.20
2015,05,15,07,51,11.30
2015,05,15,07,52,11.30
2015,05,15,07,53,11.30
2015,05,15,07,54,11.30
2015,05,15,07,55,11.40
2015,05,15,07,56,11.40
2015,05,15,07,57,11.40
2015,05,15,07,58,11.50
2015,05,15,07,59,11.50
2015,05,15,08,00,11.60
2015,05,15,08,01,11.70
2015,05,15,08,02,11.80
2015,05,15,08,03,11.80
2015,05,15,08,04,11.90
2015,05,15,08,05,12.00
2015,05,15,08,06,12.00
2015,05,15,08,07,12.00
2015,05,15,08,08,12.10
2015,05,15,08,09,12.10
2015,05,15,08,10,12.20
2015,05,15,08,11,12.20
2015,05,15,08,12,12.30
2015,05,15,08,13,12.30
2015,05,15,08,14,12.40
2015,05,15,08,15,12.40
2015,05,15,08,16,12.40
2015,05,15,08,17,12.40
2015,05,15,08,18,12.50
2015,05,15,08,19,12.50
2015,05,15,08,20,12.50
2015,05,15,08,21,12.50
2015,05,15,08,22,12.40
2015,05,15,08,23,12.40
2015,05,15,08,24,12.40
2015,05,15,08,25,12.40
2015,05,15,08,26,12.40
2015,05,15,08,27,12.40
2015,05,15,08,28,12.40
2015,05,15,08,29,12.40
2015,05,15,08,30,12.40
2015,05,15,08,31,12.40
2015,05,15,08,32,12.50
2015,05,15,08,33,12.60
2015,05,15,08,34,12.50
2015,05,15,08,35,12.50
2015,05,15,08,36,12.50
2015,05,15,08,37,12.50
2015,05,15,08,38,12.50
2015,05,15,08,39,12.50
2015,05,15,08,40,12.50
2015,05,15,08,41,12.60
2015,05,15,08,42,12.60
2015,05,15,08,43,12.60
2015,05,15,08,44,12.60
2015,05,15,08,45,12.70
2015,05,15,08,46,12.70
2015,05,15,08,47,12.70
2015,05,15,08,48,12.80
2015,05,15,08,49,12.80
2015,05,15,08,50,12.90
2015,05,15,08,51,12.90
2015,05,15,08,52,12.90
2015,05,15,08,53,12.90
2015,05,15,08,54,12.90
2015,05,15,08,55,13.00
2015,05,15,08,56,13.10
2015,05,15,08,57,13.10
2015,05,15,08,58,13.10
2015,05,15,08,59,13.10
2015,05,15,09,00,13.10
2015,05,15,09,01,13.00
2015,05,15,09,02,13.00
2015,05,15,09,03,13.00
2015,05,15,09,04,13.00
2015,05,15,09,05,13.00
2015,05,15,09,06,13.10
2015,05,15,09,07,13.00
2015,05,15,09,08,13.00
2015,05,15,09,09,13.00
2015,05,15,09,10,13.00
2015,05,15,09,11,13.00
2015,05,15,09,12,13.00
2015,05,15,09,13,13.10
2015,05,15,09,14,13.10
2015,05,15,09,15,13.20
2015,05,15,09,16,13.20
2015,05,15,09,17,13.20
2015,05,15,09,18,13.30
2015,05,15,09,19,13.30
2015,05,15,09,20,13.40
2015,05,15,09,21,13.40
2015,05,15,09,22,13.30
2015,05,15,09,23,13.30
2015,05,15,09,24,13.30
2015,05,15,09,25,13.30
2015,05,15,09,26,13.30
2015,05,15,09,27,13.30
2015,05,15,09,28,13.30
2015,05,15,09,29,13.40
2015,05,15,09,30,13.50
2015,05,15,09,31,13.50
2015,05,15,09,32,13.50
2015,05,15,09,33,13.50
2015,05,15,09,34,13.50
2015,05,15,09,35,13.50
2015,05,15,09,36,13.60
2015,05,15,09,37,13.70
2015,05,15,09,38,13.70
2015,05,15,09,39,13.70
2015,05,15,09,40,13.70
2015,05,15,09,41,13.70
2015,05,15,09,42,13.70
2015,05,15,09,43,13.80
2015,05,15,09,44,13.80
2015,05,15,09,45,13.80
2015,05,15,09,46,13.90
2015,05,15,09,47,13.90
2015,05,15,09,48,13.90
2015,05,15,09,49,13.90
2015,05,15,09,50,13.90
2015,05,15,09,51,13.90
2015,05,15,09,52,13.90
2015,05,15,09,53,13.90
2015,05,15,09,54,13.90
2015,05,15,09,55,14.00
2015,05,15,09,56,14.00
2015,05,15,09,57,14.00
2015,05,15,09,58,14.00
2015,05,15,09,59,14.00
2015,05,15,10,00,14.00
2015,05,15,10,01,14.00
2015,05,15,10,02,14.00
2015,05,15,10,03,14.00
2015,05,15,10,04,14.00
2015,05,15,10,05,14.00
2015,05,15,10,06,14.10
2015,05,15,10,07,14.10
2015,05,15,10,08,14.20
2015,05,15,10,09,14.20
2015,05,15,10,10,14.30
2015,05,15,10,11,14.30
2015,05,15,10,12,14.30
2015,05,15,10,13,14.30
2015,05,15,10,14,14.30
2015,05,15,10,15,14.30
2015,05,15,10,16,14.30
2015,05,15,10,17,14.30
2015,05,15,10,18,14.30
2015,05,15,10,19,14.30
2015,05,15,10,20,14.30
2015,05,15,10,21,14.30
2015,05,15,10,22,14.30
2015,05,15,10,23,14.30
2015,05,15,10,24,14.30
2015,05,15,10,25,14.30
2015,05,15,10,26,14.40
2015,05,15,10,27,14.40
2015,05,15,10,28,14.50
2015,05,15,10,29,14.50
2015,05,15,10,30,14.50
2015,05,15,10,31,14.40
2015,05,15,10,32,14.40
2015,05,15,10,33,14.40
2015,05,15,10,34,14.50
2015,05,15,10,35,14.60
2015,05,15,10,36,14.60
2015,05,15,10,37,14.70
2015,05,15,10,38,14.70
2015,05,15,10,39,14.80
2015,05,15,10,40,14.80
2015,05,15,10,41,14.80
2015,05,15,10,42,14.90
2015,05,15,10,43,14.90
2015,05,15,10,44,14.90
2015,05,15,10,45,14.90
2015,05,15,10,46,14.90
2015,05,15,10,47,14.90
2015,05,15,10,48,15.00
2015,05,15,10,49,15.10
2015,05,15,10,50,15.10
2015,05,15,10,51,15.00
2015,05,15,10,52,15.00
2015,05,15,10,53,15.00
2015,05,15,10,54,15.00
2015,05,15,10,55,15.10
2015,05,15,10,56,15.20
2015,05,15,10,57,15.20
2015,05,15,10,58,15.20
2015,05,15,10,59,15.30
2015,05,15,11,00,15.30
2015,05,15,11,01,15.30
2015,05,15,11,02,15.30
2015,05,15,11,03,15.30
2015,05,15,11,04,15.40
2015,05,15,11,05,15.40
2015,05,15,11,06,15.50
2015,05,15,11,07,15.40
2015,05,15,11,08,15.40
2015,05,15,11,09,15.40
2015,05,15,11,10,15.50
2015,05,15,11,11,15.50
2015,05,15,11,12,15.50
2015,05,15,11,13,15.50
2015,05,15,11,14,15.50
2015,05,15,11,15,15.60
2015,05,15,11,16,15.50
2015,05,15,11,17,15.50
2015,05,15,11,18,15.50
2015,05,15,11,19,15.60
2015,05,15,11,20,15.60
2015,05,15,11,21,15.70
2015,05,15,11,22,15.80
2015,05,15,11,23,15.90
2015,05,15,11,24,15.90
2015,05,15,11,25,15.90
2015,05,15,11,26,15.90
2015,05,15,11,27,15.90
2015,05,15,11,28,15.90
2015,05,15,11,29,15.90
2015,05,15,11,30,15.90
2015,05,15,11,31,15.90
2015,05,15,11,32,15.90
2015,05,15,11,33,15.90
2015,05,15,11,34,16.00
2015,05,15,11,35,16.00
2015,05,15,11,36,16.10
2015,05,15,11,37,16.00
2015,05,15,11,38,15.90
2015,05,15,11,39,15.80
2015,05,15,11,40,15.70
2015,05,15,11,41,15.70
2015,05,15,11,42,15.60
2015,05,15,11,43,15.60
2015,05,15,11,44,15.70
2015,05,15,11,45,15.80
2015,05,15,11,46,15.80
2015,05,15,11,47,15.80
2015,05,15,11,48,15.70
2015,05,15,11,49,15.60
2015,05,15,11,50,15.50
2015,05,15,11,51,15.50
2015,05,15,11,52,15.40
2015,05,15,11,53,15.40
2015,05,15,11,54,15.40
2015,05,15,11,55,15.30
2015,05,15,11,56,15.40
2015,05,15,11,57,15.40
2015,05,15,11,58,15.40
2015,05,15,11,59,15.50
2015,05,15,12,00,15.60
2015,05,15,12,01,15.70
2015,05,15,12,02,15.80
2015,05,15,12,03,15.80
2015,05,15,12,04,15.80
2015,05,15,12,05,15.80
2015,05,15,12,06,15.80
2015,05,15,12,07,15.70
2015,05,15,12,08,15.70
2015,05,15,12,09,15.60
2015,05,15,12,10,15.60
2015,05,15,12,11,15.50
2015,05,15,12,12,15.50
2015,05,15,12,13,15.60
2015,05,15,12,14,15.60
2015,05,15,12,15,15.70
2015,05,15,12,16,15.70
2015,05,15,12,17,15.70
2015,05,15,12,18,15.70
2015,05,15,12,19,15.80
2015,05,15,12,20,15.80
2015,05,15,12,21,15.90
2015,05,15,12,22,15.90
2015,05,15,12,23,16.00
2015,05,15,12,24,16.00
2015,05,15,12,25,16.00
2015,05,15,12,26,16.00
2015,05,15,12,27,16.00
2015,05,15,12,28,16.00
2015,05,15,12,29,16.10
2015,05,15,12,30,16.10
2015,05,15,12,31,16.10
2015,05,15,12,32,16.30
2015,05,15,12,33,16.30
2015,05,15,12,34,16.30
2015,05,15,12,35,16.40
2015,05,15,12,36,16.40
2015,05,15,12,37,16.50
2015,05,15,12,38,16.50
2015,05,15,12,39,16.60
2015,05,15,12,40,16.50
2015,05,15,12,41,16.60
2015,05,15,12,42,16.60
2015,05,15,12,43,16.70
2015,05,15,12,44,16.70
2015,05,15,12,45,16.70
2015,05,15,12,46,16.80
2015,05,15,12,47,16.80
2015,05,15,12,48,16.80
2015,05,15,12,49,16.80
2015,05,15,12,50,16.90
2015,05,15,12,51,16.90
2015,05,15,12,52,17.00
2015,05,15,12,53,17.00
2015,05,15,12,54,17.00
2015,05,15,12,55,17.10
2015,05,15,12,56,17.20
2015,05,15,12,57,17.30
2015,05,15,12,58,17.30
2015,05,15,12,59,17.20
2015,05,15,13,00,17.20
2015,05,15,13,01,17.20
2015,05,15,13,02,17.10
2015,05,15,13,03,17.00
2015,05,15,13,04,16.90
2015,05,15,13,05,16.90
2015,05,15,13,06,16.90
2015,05,15,13,07,17.00
2015,05,15,13,08,17.10
2015,05,15,13,09,17.10
2015,05,15,13,10,17.20
2015,05,15,13,11,17.30
2015,05,15,13,12,17.30
2015,05,15,13,13,17.30
2015,05,15,13,14,17.20
2015,05,15,13,15,17.20
2015,05,15,13,16,17.00
2015,05,15,13,17,17.00
2015,05,15,13,18,17.00
2015,05,15,13,19,17.10
2015,05,15,13,20,17.10
2015,05,15,13,21,17.20
2015,05,15,13,22,17.30
2015,05,15,13,23,17.30
2015,05,15,13,24,17.30
2015,05,15,13,25,17.30
2015,05,15,13,26,17.30
2015,05,15,13,27,17.30
2015,05,15,13,28,17.30
2015,05,15,13,29,17.20
2015,05,15,13,30,17.20
2015,05,15,13,31,17.10
2015,05,15,13,32,17.10
2015,05,15,13,33,17.00
2015,05,15,13,34,17.00
2015,05,15,13,35,16.90
2015,05,15,13,36,16.90
2015,05,15,13,37,17.00
2015,05,15,13,38,17.10
2015,05,15,13,39,17.10
2015,05,15,13,40,17.10
2015,05,15,13,41,17.00
2015,05,15,13,42,17.00
2015,05,15,13,43,17.00
2015,05,15,13,44,17.00
2015,05,15,13,45,17.00
2015,05,15,13,46,17.00
2015,05,15,13,47,16.90
2015,05,15,13,48,16.90
2015,05,15,13,49,17.00
2015,05,15,13,50,17.00
2015,05,15,13,51,16.90
2015,05,15,13,52,16.90
2015,05,15,13,53,16.90
2015,05,15,13,54,17.00
2015,05,15,13,55,17.10
2015,05,15,13,56,17.10
2015,05,15,13,57,17.10
2015,05,15,13,58,17.10
2015,05,15,13,59,17.10
2015,05,15,14,00,17.10
2015,05,15,14,01,17.20
2015,05,15,14,02,17.20
2015,05,15,14,03,17.20
2015,05,15,14,04,17.20
2015,05,15,14,05,17.20
2015,05,15,14,06,17.30
2015,05,15,14,07,17.30
2015,05,15,14,08,17.30
2015,05,15,14,09,17.40
2015,05,15,14,10,17.40
2015,05,15,14,11,17.40
2015,05,15,14,12,17.40
2015,05,15,14,13,17.30
2015,05,15,14,14,17.30
2015,05,15,14,15,17.30
2015,05,15,14,16,17.30
2015,05,15,14,17,17.30
2015,05,15,14,18,17.30
2015,05,15,14,19,17.30
2015,05,15,14,20,17.40
2015,05,15,14,21,17.40
2015,05,15,14,22,17.40
2015,05,15,14,23,17.40
2015,05,15,14,24,17.40
2015,05,15,14,25,17.40
2015,05,15,14,26,17.40
2015,05,15,14,27,17.30
2015,05,15,14,28,17.30
2015,05,15,14,29,17.40
2015,05,15,14,30,17.40
2015,05,15,14,31,17.40
2015,05,15,14,32,17.30
2015,05,15,14,33,17.30
2015,05,15,14,34,17.20
2015,05,15,14,35,17.20
2015,05,15,14,36,17.20
2015,05,15,14,37,17.20
2015,05,15,14,38,17.20
2015,05,15,14,39,17.30
2015,05,15,14,40,17.40
2015,05,15,14,41,17.50
2015,05,15,14,42,17.50
2015,05,15,14,43,17.50
2015,05,15,14,44,17.40
2015,05,15,14,45,17.40
2015,05,15,14,46,17.40
2015,05,15,14,47,17.50
2015,05,15,14,48,17.60
2015,05,15,14,49,17.70
2015,05,15,14,50,17.80
2015,05,15,14,51,18.00
2015,05,15,14,52,18.10
2015,05,15,14,53,18.20
2015,05,15,14,54,18.30
2015,05,15,14,55,18.40
2015,05,15,14,56,18.40
2015,05,15,14,57,18.40
2015,05,15,14,58,18.40
2015,05,15,14,59,18.40
2015,05,15,15,00,18.40
2015,05,15,15,01,18.40
2015,05,15,15,02,18.50
2015,05,15,15,03,18.50
2015,05,15,15,04,18.60
2015,05,15,15,05,18.60
2015,05,15,15,06,18.60
2015,05,15,15,07,18.50
2015,05,15,15,08,18.50
2015,05,15,15,09,18.60
2015,05,15,15,10,18.60
2015,05,15,15,11,18.50
2015,05,15,15,12,18.50
2015,05,15,15,13,18.50
2015,05,15,15,14,18.50
2015,05,15,15,15,18.60
2015,05,15,15,16,18.60
2015,05,15,15,17,18.60
2015,05,15,15,18,18.60
2015,05,15,15,19,18.60
2015,05,15,15,20,18.60
2015,05,15,15,21,18.60
2015,05,15,15,22,18.60
2015,05,15,15,23,18.60
2015,05,15,15,24,18.70
2015,05,15,15,25,18.70
2015,05,15,15,26,18.90
2015,05,15,15,27,19.00
2015,05,15,15,28,19.10
2015,05,15,15,29,19.10
2015,05,15,15,30,19.10
2015,05,15,15,31,19.00
2015,05,15,15,32,19.00
2015,05,15,15,33,18.80
2015,05,15,15,34,18.70
2015,05,15,15,35,18.70
2015,05,15,15,36,18.60
2015,05,15,15,37,18.50
2015,05,15,15,38,18.50
2015,05,15,15,39,18.60
2015,05,15,15,40,18.60
2015,05,15,15,41,18.70
2015,05,15,15,42,18.70
2015,05,15,15,43,18.80
2015,05,15,15,44,18.90
2015,05,15,15,45,19.00
2015,05,15,15,46,19.10
2015,05,15,15,47,19.20
2015,05,15,15,48,19.30
2015,05,15,15,49,19.30
2015,05,15,15,50,19.30
2015,05,15,15,51,19.30
2015,05,15,15,52,19.30
2015,05,15,15,53,19.30
2015,05,15,15,54,19.20
2015,05,15,15,55,19.10
2015,05,15,15,56,19.00
2015,05,15,15,57,18.90
2015,05,15,15,58,18.80
2015,05,15,15,59,18.70
2015,05,15,16,00,18.70
2015,05,15,16,01,18.60
2015,05,15,16,02,18.60
2015,05,15,16,03,18.60
2015,05,15,16,04,18.50
2015,05,15,16,05,18.50
2015,05,15,16,06,18.50
2015,05,15,16,07,18.60
2015,05,15,16,08,18.60
2015,05,15,16,09,18.60
2015,05,15,16,10,18.70
2015,05,15,16,11,18.80
2015,05,15,16,12,18.70
2015,05,15,16,13,18.70
2015,05,15,16,14,18.70
2015,05,15,16,15,18.60
2015,05,15,16,16,18.70
2015,05,15,16,17,18.80
2015,05,15,16,18,18.80
2015,05,15,16,19,18.90
2015,05,15,16,20,19.00
2015,05,15,16,21,19.00
2015,05,15,16,22,19.10
2015,05,15,16,23,19.10
2015,05,15,16,24,19.20
2015,05,15,16,25,19.30
2015,05,15,16,26,19.30
2015,05,15,16,27,19.30
2015,05,15,16,28,19.20
2015,05,15,16,29,19.10
2015,05,15,16,30,19.10
2015,05,15,16,31,19.10
2015,05,15,16,32,19.10
2015,05,15,16,33,19.00
2015,05,15,16,34,18.90
2015,05,15,16,35,18.90
2015,05,15,16,36,18.80
2015,05,15,16,37,18.80
2015,05,15,16,38,18.80
2015,05,15,16,39,18.90
2015,05,15,16,40,18.90
2015,05,15,16,41,19.00
2015,05,15,16,42,19.00
2015,05,15,16,43,19.00
2015,05,15,16,44,19.00
2015,05,15,16,45,18.90
2015,05,15,16,46,18.90
2015,05,15,16,47,18.80
2015,05,15,16,48,18.80
2015,05,15,16,49,18.90
2015,05,15,16,50,18.90
2015,05,15,16,51,18.90
2015,05,15,16,52,18.90
2015,05,15,16,53,19.00
2015,05,15,16,54,19.10
2015,05,15,16,55,19.10
2015,05,15,16,56,19.10
2015,05,15,16,57,19.10
2015,05,15,16,58,19.10
2015,05,15,16,59,19.20
2015,05,15,17,00,19.20
2015,05,15,17,01,19.20
2015,05,15,17,02,19.20
2015,05,15,17,03,19.20
2015,05,15,17,04,19.20
2015,05,15,17,05,19.20
2015,05,15,17,06,19.20
2015,05,15,17,07,19.20
2015,05,15,17,08,19.20
2015,05,15,17,09,19.20
2015,05,15,17,10,19.20
2015,05,15,17,11,19.20
2015,05,15,17,12,19.20
2015,05,15,17,13,19.20
2015,05,15,17,14,19.20
2015,05,15,17,15,19.30
2015,05,15,17,16,19.30
2015,05,15,17,17,19.20
2015,05,15,17,18,19.20
2015,05,15,17,19,19.00
2015,05,15,17,20,19.00
2015,05,15,17,21,18.90
2015,05,15,17,22,18.90
2015,05,15,17,23,19.00
2015,05,15,17,24,19.10
2015,05,15,17,25,19.20
2015,05,15,17,26,19.20
2015,05,15,17,27,19.20
2015,05,15,17,28,19.20
2015,05,15,17,29,19.10
2015,05,15,17,30,19.10
2015,05,15,17,31,19.10
2015,05,15,17,32,19.10
2015,05,15,17,33,19.10
2015,05,15,17,34,19.10
2015,05,15,17,35,19.10
2015,05,15,17,36,19.20
2015,05,15,17,37,19.20
2015,05,15,17,38,19.20
2015,05,15,17,39,19.20
2015,05,15,17,40,19.20
2015,05,15,17,41,19.20
2015,05,15,17,42,19.10
2015,05,15,17,43,19.20
2015,05,15,17,44,19.20
2015,05,15,17,45,19.10
2015,05,15,17,46,19.10
2015,05,15,17,47,19.00
2015,05,15,17,48,19.00
2015,05,15,17,49,18.80
2015,05,15,17,50,18.80
2015,05,15,17,51,18.80
2015,05,15,17,52,18.90
2015,05,15,17,53,18.90
2015,05,15,17,54,18.90
2015,05,15,17,55,18.90
2015,05,15,17,56,18.90
2015,05,15,17,57,18.90
2015,05,15,17,58,18.80
2015,05,15,17,59,18.80
2015,05,15,18,00,18.80
2015,05,15,18,01,18.80
2015,05,15,18,02,18.80
2015,05,15,18,03,18.80
2015,05,15,18,04,18.80
2015,05,15,18,05,18.80
2015,05,15,18,06,18.80
2015,05,15,18,07,18.80
2015,05,15,18,08,18.80
2015,05,15,18,09,18.90
2015,05,15,18,10,19.00
2015,05,15,18,11,19.00
2015,05,15,18,12,19.00
2015,05,15,18,13,19.00
2015,05,15,18,14,19.00
2015,05,15,18,15,19.10
2015,05,15,18,16,19.00
2015,05,15,18,17,19.00
2015,05,15,18,18,19.00
2015,05,15,18,19,19.00
2015,05,15,18,20,18.90
2015,05,15,18,21,18.90
2015,05,15,18,22,18.90
2015,05,15,18,23,18.90